Regional Weather Roundup
Issued by NWS

Home | Current Version | Previous Version | Graphics & Text | Print | Product List | Glossary On
Versions: 1 2 3 4 5 6 7 8 9 10 11 12 13 14 15 16 17 18 19 20 21 22 23 24 25 26 27 28 29 30 31 32 33 34 35 36 37 38 39 40 41 42 43 44 45 46 47 48 49 50
000
ASUS43 KMPX 261810
RWRMN
WEATHER ROUNDUP FOR MINNESOTA
NATIONAL WEATHER SERVICE TWIN CITIES/CHANHASSEN MN
1200 PM CST THU FEB 26 2015


NOTE: "FAIR" INDICATES FEW OR NO CLOUDS BELOW 12,000 FEET WITH NO
SIGNIFICANT WEATHER AND/OR OBSTRUCTIONS TO VISIBILITY. N/A MEANS
CURRENT SKY AND/OR WEATHER CONDITIONS ARE NOT AVAILABLE.

MNZ060>063-068>070-261900-
   Twin Cities Metro

CITY           SKY/WX    TMP DP  RH WIND       PRES   REMARKS
TWIN CITIES    MOSUNNY    7 -10  46 NW13G21   30.46S WCI  -9
6HR MIN TEMP:  -3; 6HR MAX TEMP:   7;

ST PAUL        SUNNY      7 -10  46 NW8G17    30.48S WCI  -6
CRYSTAL        SUNNY      8  -7  50 NW9       30.46S WCI  -5
BLAINE         SUNNY      9  -8  47 N10       30.45S WCI  -6
LAKEVILLE      SUNNY      3  -9  55 VRB9G20   30.44S WCI -11
EDEN PRAIRIE   MOSUNNY    7  -7  52 NW9       30.45S WCI  -7
6HR MIN TEMP:  -4; 6HR MAX TEMP:   7;

SOUTH ST PAUL  SUNNY      7  -9  47 N10       30.46S WCI  -7
LAKE ELMO      FAIR       9  -6  52 N10       30.44F WCI  -6
$$
MNZ001>005-007-008-013>017-022>024-027-028-261900-
   Northwest Minnesota

CITY           SKY/WX    TMP DP  RH WIND       PRES   REMARKS
BEMIDJI        SUNNY     -4 -14  61 NW8       30.44S WCI -19
HALLOCK        SUNNY      0 -11  60 NW8       30.55S WCI -15
ROSEAU         SUNNY     -2 -11  65 W9        30.48F WCI -18
WARROAD        SUNNY      0 -13  55 W6        30.47S WCI -12
THIEF RVR FALL SUNNY     -4 -13  65 NW7       30.51F WCI -18
CROOKSTON      SUNNY      0  -8  71 NW9       30.57S WCI -16
FOSSTON        SUNNY      0 -13  55 NW9       30.50S WCI -16
DETROIT LAKES  MOSUNNY    0  -9  65 N13       30.49S WCI -18
MOORHEAD       SUNNY      1  -8  66 NW16      30.57S WCI -18
PARK RAPIDS    SUNNY      0 -13  54 VRB7      30.43S WCI -13
MAHNOMEN       FAIR      -4 -12  69 N9        30.50S WCI -20
$$
MNZ006-009>011-018-025>026-261900-
   North Central Minnesota

CITY           SKY/WX    TMP DP  RH WIND       PRES   REMARKS
BAUDETTE       SUNNY     -4 -15  59 NW7       30.44F WCI -18
FLAG ISLAND    SUNNY      0 -15  50 NW6       30.44S WCI -12
INTL FALLS     SUNNY     -1 -14  53 NW8       30.42S WCI -15
6HR MIN TEMP: -32; 6HR MAX TEMP:  -1;

WASKISH        SUNNY     -6 -15  65 SW6       30.46S WCI -18
BIG FORK       SUNNY      3 -15  43 NW3       30.41S
LONGVILLE      SUNNY     -2 -15  55 W6        30.44S WCI -14
GRAND RAPIDS   SUNNY     -2  -9  71 NW12      30.39F WCI -20
CRANE LAKE     SUNNY     -2 -17  50 NW9       30.43R WCI -18
ORR            SUNNY      0 -17  46 NW9       30.36S WCI -16
COOK           SUNNY      0 -15  50 NW8       30.38F WCI -15
WALKER         FAIR      -3 -15  56 NW10      30.44S WCI -20
$$
MNZ012-019>021-037-261900-
   Northeast Minnesota

CITY           SKY/WX    TMP DP  RH WIND       PRES   REMARKS
DULUTH         SUNNY      2 -13  49 NW9G18    30.35F WCI -13
6HR MIN TEMP: -15; 6HR MAX TEMP:   3;

ELY            SUNNY      1 -15  46 NW10      30.34F WCI -14
HIBBING        SUNNY      1 -13  51 NW15      30.38F WCI -18
EVELETH        SUNNY      1 -13  51 NW9G18    30.38S WCI -14
DULUTH HARBOR  SUNNY      7  -9  47 N9        30.46S WCI  -7
TWO HARBORS    SUNNY      9  -9  43 N7        30.36S WCI  -3
SILVER BAY     SUNNY      9 -11  40 N5        30.34F WCI   0
GRAND MARAIS     N/A      9 -11  40 NW6       30.38F WCI  -1
G MARAIS ARPRT SUNNY      1 -17  42 NW12      30.24S WCI -15
$$
MNZ029>031-032-039>041-046>048-054>057-064-261900-
   West Central Minnesota

CITY           SKY/WX    TMP DP  RH WIND       PRES   REMARKS
FERGUS FALLS   SUNNY      0 -11  60 N17G25    30.56S WCI -21
WHEATON        MOSUNNY   -2  -9  71 NW13      30.58R HAZE    WCI -21
MORRIS           N/A      0  -8  71 NW14      30.51S HAZE    WCI -19
ALEXANDRIA     SUNNY     -2 -12  62 NW14      30.46S WCI -21
ELBOW LAKE     CLOUDY    -3 -11  67 NW16G22   30.51R WCI -23
WADENA         SUNNY     -2 -11  65 W8        30.45S WCI -17
GLENWOOD       SUNNY      0  -9  65 NW15      30.47S WCI -20
APPLETON       SUNNY      1  -9  60 NW13      30.54F WCI -16
BENSON         CLOUDY     1  -8  66 N14G22    30.51F HAZE    WCI -17
ORTONVILLE       N/A      0  -9  65 N12G17    30.54S WCI -18
MADISON        MOSUNNY    0  -8  71 NW15      30.54F WCI -20
WILLMAR        FAIR       1  -9  60 NW16      30.49S WCI -18
$$
MNZ033>034-036-042>043-049>051-058-059-261900-
   Central Minnesota

CITY           SKY/WX    TMP DP  RH WIND       PRES   REMARKS
ST CLOUD       SUNNY      3  -9  57 NW9G18    30.46S WCI -12
6HR MIN TEMP:  -9; 6HR MAX TEMP:   3;

SAUK CENTRE    FAIR       0 -11  60 NW14      30.46S WCI -18
PAYNESVILLE    SUNNY      0 -10  62 W13       30.47S WCI -18
AITKIN         SUNNY      5 -11  47 NW3       30.42S
PINE RIVER     SUNNY     -2 -13  60 NW6       30.46S WCI -14
BRAINERD       SUNNY      1 -12  54 NW6       30.45S WCI -10
STAPLES        SUNNY     -2 -13  60 NW8       30.45S WCI -17
LONG PRAIRIE   FAIR       1  -9  60 W12       30.46R WCI -15
LITTLE FALLS   SUNNY      3 -13  47 NW8       30.46F WCI -10
LITCHFIELD     SUNNY      3  -8  60 N5        30.47S WCI  -6
BUFFALO        SUNNY      5  -8  56 NW7       30.48S WCI  -7
MAPLE LAKE     SUNNY      6  -6  57 W8        30.47S WCI  -7
$$
MNZ037-044-045-052-053-261900-
   East Central Minnesota

CITY           SKY/WX    TMP DP  RH WIND       PRES   REMARKS
PRINCETON      SUNNY      7  -8  51 NW6       30.45S WCI  -3
MORA           SUNNY      7  -8  51 N9        30.45S WCI  -7
CAMBRIDGE      SUNNY      7  -8  51 N7        30.44S WCI  -5
RUSH CITY      SUNNY      6 -10  48 N3        30.45S
MOOSE LAKE     SUNNY      5 -11  47 NW3       30.40F
HINCKLEY       FAIR       7  -8  51 N12       30.43F WCI  -9
CLOQUET        SUNNY      1 -15  46 NW10G18   30.38S WCI -14
MCGREGOR       SUNNY      3  -9  55 NW7       30.42F WCI  -9
$$
MNZ071>073-080-081-089-090-097-098-261900-
   Southwest Minnesota

CITY           SKY/WX    TMP DP  RH WIND       PRES   REMARKS
MONTEVIDEO     MOSUNNY    1  -8  66 N16       30.54R WCI -18
GRANITE FALLS  MOSUNNY    2  -8  62 NW15      30.54R WCI -17
CANBY          PTSUNNY    1  -8  66 NW13G20   30.54S WCI -17
MARSHALL       MOSUNNY    0  -9  65 N16G22    30.52R WCI -21
REDWOOD FALLS  SUNNY      2  -9  60 NW14G22   30.51R WCI -16
OLIVIA         SUNNY      1  -8  66 NW13G21   30.50R WCI -16
PIPESTONE      MOSUNNY    0  -8  71 N15G21    30.45S HAZE    WCI -20
WINDOM         MOSUNNY    0  -8  71 NW17      30.46R WCI -21
WORTHINGTON    CLOUDY    23 -11  21 N17       30.46R WCI   9
JACKSON        SUNNY      3  -8  60 NW16      30.45R WCI -16
TRACY          MOSUNNY    2  -7  64 N15       30.49S WCI -16
SLAYTON        SUNNY      0 -10  62 N15       30.46R WCI -19
$$
MNZ065>067-074>077-082>085-091>093-261900-
   South Central Minnesota

CITY           SKY/WX    TMP DP  RH WIND       PRES   REMARKS
MANKATO        SUNNY      1  -8  66 NW7       30.47R WCI -11
NEW ULM        SUNNY      0  -9  65 N15       30.48S WCI -20
ST JAMES       MOSUNNY    1  -6  71 NW14      30.49S WCI -17
FAIRMONT       PTSUNNY    1  -8  66 NW15      30.45R WCI -18
GLENCOE        SUNNY      4  -5  66 NW9       30.47S WCI -10
FARIBAULT      SUNNY      5  -8  56 NW10      30.44S WCI -10
OWATONNA       SUNNY      1  -8  66 NW8       30.43R WCI -12
WASECA         SUNNY      3  -8  60 NW10      30.46R WCI -12
ALBERT LEA     SUNNY      1  -8  66 N10       30.41S WCI -14
$$
MNZ078>079-086>088-094>096-261900-
   Southeast Minnesota

CITY           SKY/WX    TMP DP  RH WIND       PRES   REMARKS
ROCHESTER      SUNNY      3  -7  63 NW10      30.38R WCI -12
6HR MIN TEMP:  -9; 6HR MAX TEMP:   3;

RED WING       SUNNY      9  -8  47 NE10      30.44S WCI  -6
STANTON        SUNNY      6  -8  52 NW8       30.43S WCI  -6
DODGE CENTER   SUNNY      1  -8  66 N13       30.38S WCI -16
WINONA         SUNNY     10  -4  52 NW10      30.43S WCI  -3
AUSTIN         SUNNY      3  -8  60 NW13      30.40R WCI -14
PRESTON        SUNNY      3  -7  61 N10       30.38R WCI -12
$$
ABBREVIATIONS USED IN REMARKS
   TC - TEMPERATURES IN CELSIUS
  WCI - WIND CHILL INDEX
   HX - HEAT INDEX
  VSB - VISIBILITY
$$


USA.gov is the U.S. government's official web portal to all federal, state and local government web resources and services.